Location: Newark
(50.4348°N, 30.5552°E)
Time: 01:12:58
(UTC+00:00)

Tiros 1 despin weight - Pass Details

Date: 31 January 2020
Orbit: 594 x 642 km, 48.2° (Epoch: 27 February)

Event Time Altitude Azimuth Distance (km) Brightness Sun altitude
Rises 09:39:29 0° 263° (W) 2,860 ? 21.7°
Reaches altitude 10° 09:41:47 10° 261° (W) 1,963 ? 21.8°
Maximum altitude 09:46:15 67° 180° (S) 669 ? 21.9°
Drops below altitude 10° 09:50:48 10° 97° (E) 1,994 ? 21.9°
Sets 09:53:09 0° 95° (E) 2,909 ? 22.0°
